Regional Weather Roundup
Issued by NWS Wakefield, VA

Home | Current Version | Previous Version | Text Only | Print | Product List | Glossary Off
Versions: 1 2 3 4 5 6 7 8 9 10 11 12 13 14 15 16 17 18 19 20 21 22 23 24 25 26 27 28 29 30 31 32 33 34 35 36 37 38 39 40 41 42 43 44 45 46 47 48 49 50

955
ASUS41 KAKQ 201414
RWRAKQ

REGIONAL WEATHER ROUNDUP
NATIONAL WEATHER SERVICE WAKEFIELD VA
1000 AM EDT FRI APR 20 2018

Note: "fair" indicates few or no clouds below 12,000 feet with no
significant weather and/or obstructions to visibility. * = Denotes
station may not report precipitation (e.g., rain,snow,etc.),
thunder or fog.

VAZ042-051-052>054-056-201500-
NORTHERN VIRGINIA

CITY           SKY/WX    TMP DP  RH WIND       PRES   REMARKS
WASH NATIONAL  FAIR      47  22  37 NW10G24   30.31R
DULLES         FAIR      45  22  40 NW20G26   30.31R
FORT BELVOIR   FAIR      46  20  34 NW21      30.31R
QUANTICO       FAIR      48  23  37 NW17      30.33R
FREDERICKSBRG* FAIR      47  24  40 NW9G22    30.32S
STAFFORD*      FAIR      48  22  36 NW16G25   30.37R
WARRENTON      FAIR      48  17  28 NW14G20   30.33R
CULPEPER*      FAIR      48  17  29 N12G25    30.33S
MANASSAS*      FAIR      46  22  38 NW14      30.33R
LEESBURG*      FAIR      45  25  45 N13G28    30.32R
WINCHESTER     FAIR      41  21  45 NW24      30.32S
FRONT ROYAL*   FAIR      45  19  36 NW12G21   30.31R
LURAY*         FAIR      45  19  36 W9        30.33R
$$

VAZ048-049-060>072-079>083-201500-
CENTRAL AND SOUTH CENTRAL VIRGINIA

CITY           SKY/WX    TMP DP  RH WIND       PRES   REMARKS
RICHMOND       FAIR      49  19  30 NW16      30.33R
CHESTERFIELD*  FAIR      49  20  31 N10G18    30.34R
PETERSBURG*    FAIR      48  15  26 NW14G23   30.34S
HANOVER        FAIR      49  20  31 NW12G17   30.35R
TAPPAHANNOCK*  FAIR      47  24  40 NW10G20   30.32S
QUINTON*       FAIR      46  21  36 N12G20    30.33R
CHARLOTTSVILLE FAIR      49  18  29 NW7       30.33R
GORDONSVILLE*  FAIR      46  19  33 W8        30.34R
ORANGE*        FAIR      45  19  36 CALM      30.33R
LOUISA*        FAIR      47  19  32 NW13      30.37R
BUMPASS*       FAIR      47  16  29 N5G16     30.33R
FARMVILLE*     FAIR      49  15  25 NE7       30.34S
CREWE*         FAIR      49  22  35 NW8       30.35S
FORT PICKETT*  FAIR      48  22  35 N9G20     30.35R
CHASE CITY*    FAIR      49  23  35 N7        30.35R
CLARKSVILLE*   FAIR      50  28  43 N9        30.35R
SOUTH HILL*    FAIR      48  27  43 N10G18    30.40R
LAWRENCEVILLE* FAIR      49  21  33 N9        30.34S
EMPORIA*       FAIR      46  25  42 NW13G18   30.36S
$$

VAZ088>098-201500-
SOUTHEAST VIRGINIA

CITY           SKY/WX    TMP DP  RH WIND       PRES   REMARKS
NORFOLK        FAIR      48  24  39 N12G20    30.30R
VIRGINIA BEACH FAIR      48  29  47 NW18G24   30.30R
NORFOLK NAVAL  FAIR      49  25  39 N16       30.32R
WEST POINT*    FAIR      46  20  35 N8G20     30.34R
SALUDA*        FAIR      45  26  46 NW10G22   30.30R
NEWPORT NEWS   FAIR      48  24  39 N17G28    30.31R
LANGLEY AFB    FAIR      47  24  40 NW10      30.31R
FORT EUSTIS    FAIR      47  24  39 NW13G20   30.29R
WILLIAMSBURG*  FAIR      48  19  32 NW12G22   30.32S
HR EXEC AP*    FAIR      49  24  37 NW10G18   30.33R
FRANKLIN*      FAIR      48  22  34 NW12G20   30.34S
US460-WAKEFLD  FAIR      49  20  31 N9G17     30.33R
$$

VAZ020-022-025-037-045-201500-
WEST CENTRAL AND SOUTHWEST VIRGINIA

CITY           SKY/WX    TMP DP  RH WIND       PRES   REMARKS
STAUNTON*      FAIR      43  19  37 N10       30.35S
WAYNESBORO*    FAIR      43  15  33 N10       30.33R
HOT SPRINGS VA FAIR      33   7  33 NW10      30.27R
LYNCHBURG      FAIR      48  16  27 VRB6      30.34R
DANVILLE       FAIR      51  28  41 N8        30.36R
SOUTH BOSTON*  FAIR      51  21  31 N7        30.35S
MARTINSVILLE   FAIR      49  24  38 NE9       30.39R
ROANOKE        FAIR      48  19  31 NW8       30.36S
BLACKSBURG     FAIR      45  17  32 W7        30.36S
DUBLIN*        FAIR      44  19  36 NW9       30.36R
MARION*        FAIR      44  27  51 NW7       30.37R
HILLSVILLE*    FAIR      41  22  47 N13       30.32R
RICHLANDS*     FAIR      39   0  19 CALM      30.36S
WISE*          FAIR      41  30  65 N9        30.38R
ABINGDON*      FAIR      45  31  57 CALM      30.37S
$$

MDZ021>025-VAZ099-100-201500-
SOUTHERN MARYLAND AND THE DELMARVA PENINSULA

CITY           SKY/WX    TMP DP  RH WIND       PRES   REMARKS
PATUXENT RIVER FAIR      48  24  39 NW18G24   30.28S
BAY BRIDGE APT FAIR      43  25  49 NW15      30.29R
LEONARDTOWN    FAIR      45  23  42 NW8       30.30S
DOVER          MOSUNNY   44  25  48 NW14G23   30.24R
GEORGETOWN     FAIR      45  24  43 NW8G20    30.25R
EASTON         MOSUNNY   45  23  42 N16G23    30.31R
CAMBRIDGE      NOT AVBL
SALISBURY      FAIR      45  24  43 N18G28    30.25S
TANGIER        NOT AVBL
OCEAN CITY     FAIR      45  25  45 NW14G23   30.25R
WALLOPS ISLAND FAIR      47  26  44 NW13      30.26S
ACCOMACK*      FAIR      46  27  47 NW15G24   30.28R
$$

NCZ012>017-030>032-201500-
NORTH CENTRAL AND EASTERN NORTH CAROLINA

CITY           SKY/WX    TMP DP  RH WIND       PRES   REMARKS
ROANOKE RAPIDS FAIR      50  30  46 N10G16    30.34S
RALEIGH        FAIR      52  30  43 N8        30.35S
ELIZABETH CITY FAIR      51  28  41 NW17G28   30.31R
AHOSKIE*       FAIR      48  26  41 NW8       30.34S
EDENTON*       FAIR      52  29  42 N14G20    30.32S
CURRITUCK*     NOT AVBL
KILL DEVIL HLS FAIR      49  26  39 NW9G18    30.28S
MANTEO         FAIR      50  26  39 N10G21    30.30S
CAPE HATTERAS  FAIR      54  30  40 N8        30.30R
TARBORO*       NOT AVBL
GOLDSBORO      FAIR      54  29  38 NW9       30.33R
WASHINGTON     FAIR      53  30  41 N13       30.33S
GREENVILLE     FAIR      54  30  40 N12       30.34R
NEW BERN       FAIR      51  30  44 N10       30.34S
WILMINGTON     FAIR      55  29  36 N13       30.34S
$$

VAZ048-201500-
ELSEWHERE

CITY           SKY/WX    TMP DP  RH WIND       PRES   REMARKS
HARRISBURG PA  PTSUNNY   43  24  47 NW15      30.27R
BALTIMORE      FAIR      45  22  40 NW16G28   30.28R
ANNAPOLIS      FAIR      46  27  47 NW13      30.28R
ANDREWS AFB    FAIR      45  21  39 NW15G22   30.28R
PHILADELPHIA   FAIR      43  21  41 NW15G24   30.24R
HENDERSON NC   FAIR      49  28  44 N10       30.34S
GREENSBORO     FAIR      50  28  42 NE10      30.35R
ROCKY MOUNT    FAIR      53  30  41 N8        30.34S
$$

VAZ100-201500-
MARINE

STATION/POSITION TIME  TEMP    WIND        PRES    WAVE   SWELL
                       AIR SEA DIR/SP/G            HT/PER HT/PER
                 (UTC) (F)     (DEG/KT/KT) (MB)    (FT/S) (FT/S)
BRANDYWINE LGT   1342   40     330/ 13/ 16 1024.3R
CAPE MAY NJ      1348   42 48  330/ 16/ 24 1023.3R
LEWES DE         1348      47  340/ 17/ 20 1024.1R
15NM E FENWICK I 1350   40 45  320/ 21/ 27 1023.5R   5/ 6
OCEAN-CITY-INLET 1348   43 49  350/ 15/ 21 1024.6R
WACHAPREAGUE VA  1348   45 51  330/  9/ 15 1025.1R
THOMAS POINT MD  1400   42 49  350/ 17/ 20 1026.4R
GOOSES REEF MD   1400   43      10/ 16/ 19 1026.0
COVE POINT MD    1348   42     350/ 16/ 19 1026.1R
SOLOMONS ISLAND  1348   44 52  320/ 12/ 16 1025.3R
BISHOPS HEAD MD  1348   44 47  310/ 15/ 20 1025.7R
PINEY POINT MD   1348          350/ 18/ 20   N/A
POTOMAC MD       1400   44 51  330/ 14/ 17 1027.0    2/ 3
CAMBRIDGE MD     1348   45 51              1025.9R
LEWISETTA VA     1348   44 52  330/ 14/ 18 1026.2R
RAPPAHANNOCK LGT 1348          320/ 20/ 26 1026.2R
YORK RVR RNG VA  1348   45     340/ 17/ 24 1026.6R
YORKTOWN VA      1348   45 55  310/ 17/ 21 1026.3R
DOMINION TERM VA 1348   47      50/  5/ 14 1026.6R
KIPTOPEKE VA     1348      52  350/ 19/ 24   N/A
CAPE HENRY VA    1348   44     320/ 17/ 20   N/A
WILLOUBY STN VA  1348   45     340/ 16/ 20 1026.4R
S CRANEY ISL VA  1348   47     350/ 11/ 19 1026.2R
CAPE HENRY BUOY  1400      50                N/A     4/ 4   2/13
64NM E OF VA BCH 1350   44 49  340/ 17/ 21 1025.2R   6/ 6   2/13
DUCK PIER NC     1348   46 51  340/ 15/ 18 1025.1R
44100 DUCK FRF   1345      50                N/A     5/ 5
44056 DUCK FRF   1330      50                N/A     5/ 6   2/14
OREGON INLET NC  1342   49 56  310/ 19/ 24 1025.4S
HATTERAS NC      1348      61  350/ 15/ 20 1025.9R
DIAMOND SHLS NC  1400   51 71  360/ 19/ 27 1026.1
CAPE LOOKOUT NC  1400          360/ 12/ 16 1026.7R
$$




USA.gov is the U.S. government's official web portal to all federal, state and local government web resources and services.